This is the latest recevied weather packets stored in our database for station/object KC5EZZ-2. If no packets are shown the sender has not sent any weather packets the latest 10 day(s).
| Time | Temp. | Humidity | Pressure | Rain* | Wind** | Luminosity | Snow |
|---|---|---|---|---|---|---|---|
| 1777889740 | 15.56° C | - | - | 0 mm | 1.34 m/s, 129° | - | - |
| 1777889437 | 15.56° C | - | - | 0 mm | 1.34 m/s, 152° | - | - |
| 1777889138 | 15.56° C | - | - | 0 mm | 0 m/s | - | - |
| 1777888838 | 15.56° C | - | - | 0 mm | 1.79 m/s, 125° | - | - |
| 1777888536 | 15.56° C | - | - | 0 mm | 1.79 m/s, 138° | - | - |
| 1777888236 | 15.56° C | - | - | 0 mm | 1.34 m/s, 135° | - | - |
| 1777887937 | 15.56° C | - | - | 0 mm | 2.24 m/s, 105° | - | - |
| 1777887634 | 15.56° C | - | - | 0 mm | 1.34 m/s, 120° | - | - |
| 1777887335 | 15.56° C | - | - | 0 mm | 1.79 m/s, 141° | - | - |
| 1777887035 | 15.56° C | - | - | 0 mm | 1.79 m/s, 127° | - | - |
| 1777886733 | 15.56° C | - | - | 0 mm | 2.24 m/s, 176° | - | - |
| 1777886433 | 15.56° C | - | - | 0 mm | 1.79 m/s, 155° | - | - |
| 1777886134 | 15.56° C | - | - | 0 mm | 1.79 m/s, 135° | - | - |
| 1777885831 | 15.56° C | - | - | 0 mm | 1.79 m/s, 125° | - | - |
| 1777885532 | 15.56° C | - | - | 0 mm | 0 m/s | - | - |
| 1777885232 | 15.56° C | - | - | 0 mm | 0 m/s | - | - |
| 1777884930 | 15.56° C | - | - | 0 mm | 0 m/s | - | - |
| 1777884630 | 16.11° C | - | - | 0 mm | 0 m/s | - | - |
| 1777884331 | 16.11° C | - | - | 0 mm | 0.45 m/s, 115° | - | - |
| 1777884028 | 16.11° C | - | - | 0 mm | 0.89 m/s, 166° | - | - |
| 1777883729 | 16.11° C | - | - | 0 mm | 1.34 m/s, 187° | - | - |
| 1777883429 | 16.11° C | - | - | 0 mm | 1.79 m/s, 166° | - | - |
| 1777883127 | 16.11° C | - | - | 0 mm | 1.34 m/s, 145° | - | - |
| 1777882828 | 16.11° C | - | - | 0 mm | 1.79 m/s, 166° | - | - |
| 1777882528 | 16.11° C | - | - | 0 mm | 2.68 m/s, 155° | - | - |
* Rain latest hour (hover to see other rain measurements)
** Current wind speed in m/s (hover to see current wind gust speed)